| time (UTC) | temp F | wind direction | speed knots | gust knots | rain 1hr in | rain 24hr in | rain mn in | humidity % | barometer mb |
| 20260904180515 | 58 | 244 | 0.0 | 0.0 | 0.00 | 0.12 | 0.02 | 28 | 1012.9 |
| 20260904180012 | 58 | 244 | 0.0 | 0.0 | 0.00 | 0.12 | 0.02 | 29 | 1012.9 |
| 20260904175510 | 58 | 244 | 0.0 | 0.0 | 0.00 | 0.12 | 0.02 | 27 | 1012.8 |
| 20260904175009 | 58 | 244 | 0.0 | 0.0 | 0.00 | 0.12 | 0.02 | 35 | 1013.0 |
| 20260904174510 | 58 | 244 | 0.0 | 0.0 | 0.00 | 0.12 | 0.02 | 35 | 1012.9 |
| 20260904174007 | 58 | 244 | 0.0 | 0.0 | 0.00 | 0.12 | 0.02 | 24 | 1012.8 |
| 20260904173506 | 57 | 244 | 0.0 | 0.0 | 0.00 | 0.12 | 0.02 | 24 | 1012.9 |
| 20260904173005 | 57 | 244 | 0.0 | 0.0 | 0.00 | 0.12 | 0.02 | 19 | 1012.8 |
| 20260904172502 | 57 | 238 | 0.0 | 0.0 | 0.00 | 0.12 | 0.02 | 11 | 1012.9 |
| 20260904172001 | 56 | 238 | 0.0 | 0.0 | 0.00 | 0.12 | 0.02 | 1 | 1012.9 |
| 20260904171600 | 56 | 236 | 0.0 | 0.0 | 0.00 | 0.12 | 0.02 | 2 | 1012.8 |
| 20260904171059 | 55 | 236 | 0.0 | 0.0 | 0.00 | 0.12 | 0.02 | 4 | 1012.9 |
| 20260904170558 | 55 | 236 | 0.0 | 0.0 | 0.00 | 0.12 | 0.02 | 1 | 1012.9 |
| 20260904170056 | 54 | 236 | 0.0 | 0.0 | 0.00 | 0.12 | 0.02 | 1 | 1012.8 |
| 20260904165553 | 53 | 230 | 0.0 | 0.0 | 0.00 | 0.12 | 0.02 | 1 | 1012.9 |
| 20260904165052 | 53 | 230 | 0.0 | 0.0 | 0.00 | 0.12 | 0.02 | 1 | 1012.9 |
| 20260904164555 | 53 | 230 | 0.0 | 0.0 | 0.00 | 0.12 | 0.02 | 1 | 1012.8 |
| 20260904164052 | 53 | 230 | 0.0 | 0.0 | 0.00 | 0.12 | 0.02 | 1 | 1012.8 |
| 20260904163548 | 52 | 230 | 0.0 | 0.0 | 0.00 | 0.12 | 0.02 | 1 | 1012.7 |
| 20260904163046 | 52 | 230 | 0.0 | 0.0 | 0.00 | 0.12 | 0.02 | 1 | 1012.8 |
| 20260904162545 | 52 | 229 | 0.0 | 0.0 | 0.00 | 0.12 | 0.02 | 1 | 1012.8 |
| 20260904162043 | 52 | 230 | 0.0 | 0.0 | 0.00 | 0.12 | 0.02 | 1 | 1012.8 |
| 20260904161546 | 52 | 230 | 0.0 | 0.0 | 0.00 | 0.12 | 0.02 | 1 | 1012.8 |
| 20260904161042 | 52 | 230 | 0.0 | 0.0 | 0.00 | 0.12 | 0.02 | 1 | 1012.8 |
| 20260904160541 | 52 | 230 | 0.0 | 0.0 | 0.00 | 0.12 | 0.02 | 1 | 1012.9 |
| 20260904160040 | 52 | 229 | 0.0 | 0.0 | 0.00 | 0.12 | 0.02 | 1 | 1012.8 |
| 20260904155536 | 52 | 229 | 0.0 | 0.0 | 0.00 | 0.12 | 0.02 | 1 | 1012.8 |
| 20260904155034 | 52 | 229 | 0.0 | 0.0 | 0.00 | 0.12 | 0.02 | 1 | 1012.8 |
| 20260904154533 | 52 | 229 | 0.0 | 0.0 | 0.00 | 0.12 | 0.02 | 1 | 1012.9 |
| 20260904154032 | 52 | 229 | 0.0 | 0.0 | 0.00 | 0.12 | 0.02 | 1 | 1012.7 |
| 20260904153531 | 52 | 229 | 0.0 | 0.0 | 0.00 | 0.12 | 0.02 | 1 | 1012.7 |
| 20260904153029 | 51 | 229 | 0.0 | 0.0 | 0.00 | 0.12 | 0.02 | 1 | 1012.5 |
| 20260904152527 | 51 | 229 | 0.0 | 0.0 | 0.00 | 0.12 | 0.02 | 1 | 1012.6 |
| 20260904152026 | 51 | 229 | 0.0 | 0.0 | 0.00 | 0.12 | 0.02 | 1 | 1012.5 |
| 20260904151536 | 51 | 230 | 0.0 | 0.0 | 0.00 | 0.12 | 0.02 | 1 | 1012.4 |
| 20260904151024 | 51 | 230 | 0.0 | 0.0 | 0.00 | 0.12 | 0.02 | 1 | 1012.4 |
| 20260904150522 | 51 | 229 | 0.0 | 0.0 | 0.00 | 0.12 | 0.02 | 1 | 1012.5 |
| 20260904150025 | 51 | 229 | 0.0 | 0.0 | 0.00 | 0.12 | 0.02 | 1 | 1012.4 |
| 20260904145519 | 51 | 229 | 0.0 | 0.0 | 0.00 | 0.12 | 0.02 | 1 | 1012.4 |
| 20260904145018 | 51 | 229 | 0.0 | 0.0 | 0.00 | 0.12 | 0.02 | 1 | 1012.4 |
| 20260904144516 | 51 | 229 | 0.0 | 0.0 | 0.00 | 0.12 | 0.02 | 1 | 1012.3 |
| 20260904144014 | 51 | 229 | 0.0 | 0.0 | 0.00 | 0.12 | 0.02 | 1 | 1012.3 |
| 20260904143515 | 51 | 229 | 0.0 | 0.0 | 0.00 | 0.12 | 0.02 | 1 | 1012.3 |
| 20260904143012 | 51 | 226 | 0.0 | 0.0 | 0.00 | 0.12 | 0.02 | 1 | 1012.2 |
| 20260904142514 | 51 | 360 | 0.0 | 0.0 | 0.00 | 0.12 | 0.02 | 1 | 1012.1 |
| 20260904142009 | 51 | 360 | 0.0 | 0.0 | 0.00 | 0.12 | 0.02 | 1 | 1012.2 |
| 20260904141508 | 51 | 360 | 0.0 | 0.0 | 0.00 | 0.12 | 0.02 | 1 | 1012.2 |
| 20260904141010 | 51 | 360 | 0.0 | 0.0 | 0.00 | 0.12 | 0.02 | 1 | 1012.0 |
| 20260904140506 | 51 | 360 | 0.0 | 0.0 | 0.00 | 0.12 | 0.02 | 1 | 1012.0 |
| 20260904140004 | 51 | 360 | 0.0 | 0.0 | 0.00 | 0.12 | 0.02 | 1 | 1011.8 |
| 20260904135503 | 51 | 360 | 0.0 | 0.0 | 0.00 | 0.12 | 0.02 | 1 | 1011.7 |
| 20260904135101 | 51 | 360 | 0.0 | 0.0 | 0.00 | 0.12 | 0.02 | 1 | 1011.7 |
| 20260904134616 | 51 | 360 | 0.0 | 0.0 | 0.00 | 0.12 | 0.02 | 1 | 1011.7 |
| 20260904134059 | 51 | 360 | 0.0 | 0.0 | 0.00 | 0.12 | 0.02 | 1 | 1011.7 |
| 20260904133556 | 51 | 360 | 0.0 | 0.0 | 0.00 | 0.12 | 0.02 | 1 | 1011.7 |
| 20260904133108 | 51 | 360 | 0.0 | 0.0 | 0.00 | 0.12 | 0.02 | 1 | 1011.5 |
| 20260904132555 | 51 | 360 | 0.0 | 0.0 | 0.00 | 0.12 | 0.02 | 1 | 1011.5 |
| 20260904132052 | 51 | 360 | 0.0 | 0.0 | 0.00 | 0.12 | 0.02 | 1 | 1011.4 |
| 20260904131605 | 51 | 360 | 0.0 | 0.0 | 0.01 | 0.12 | 0.02 | 1 | 1011.3 |
| 20260904131049 | 51 | 360 | 0.0 | 0.0 | 0.01 | 0.12 | 0.02 | 1 | 1011.3 |
| 20260904130547 | 51 | 360 | 0.0 | 0.0 | 0.01 | 0.12 | 0.02 | 1 | 1011.3 |
| 20260904130046 | 51 | 360 | 0.0 | 0.0 | 0.01 | 0.12 | 0.02 | 1 | 1011.2 |
| 20260904125549 | 51 | 360 | 0.0 | 0.0 | 0.01 | 0.12 | 0.02 | 1 | 1011.2 |
| 20260904125047 | 51 | 360 | 0.0 | 0.0 | 0.01 | 0.12 | 0.02 | 1 | 1011.2 |
| 20260904124542 | 51 | 360 | 0.0 | 0.0 | 0.01 | 0.12 | 0.02 | 1 | 1011.0 |
| 20260904124040 | 51 | 229 | 0.0 | 0.0 | 0.01 | 0.12 | 0.02 | 1 | 1011.1 |
| 20260904123539 | 51 | 229 | 0.0 | 0.0 | 0.01 | 0.12 | 0.02 | 1 | 1011.1 |
| 20260904123038 | 51 | 229 | 0.0 | 0.0 | 0.01 | 0.12 | 0.02 | 1 | 1011.1 |
| 20260904122537 | 51 | 229 | 0.0 | 0.0 | 0.02 | 0.12 | 0.02 | 1 | 1011.1 |
| 20260904122035 | 51 | 229 | 0.0 | 0.0 | 0.02 | 0.12 | 0.02 | 1 | 1011.0 |
| 20260904121537 | 51 | 229 | 0.0 | 0.0 | 0.01 | 0.11 | 0.01 | 1 | 1011.1 |
| 20260904121031 | 52 | 229 | 0.0 | 0.0 | 0.01 | 0.11 | 0.01 | 1 | 1011.0 |
| 20260904120530 | 52 | 229 | 0.0 | 0.0 | 0.01 | 0.11 | 0.01 | 1 | 1011.0 |
| 20260904120032 | 52 | 229 | 0.0 | 0.0 | 0.01 | 0.11 | 0.01 | 1 | 1011.0 |
| 20260904115528 | 52 | 229 | 0.0 | 0.0 | 0.01 | 0.11 | 0.01 | 1 | 1010.9 |
| 20260904115025 | 52 | 229 | 0.0 | 0.0 | 0.01 | 0.11 | 0.01 | 1 | 1010.8 |
| 20260904114524 | 52 | 229 | 0.0 | 0.0 | 0.01 | 0.11 | 0.01 | 1 | 1010.9 |
| 20260904114024 | 52 | 229 | 0.0 | 0.0 | 0.01 | 0.11 | 0.01 | 1 | 1010.8 |
| 20260904113522 | 52 | 229 | 0.0 | 0.0 | 0.01 | 0.11 | 0.01 | 1 | 1010.8 |
| 20260904113031 | 52 | 229 | 0.0 | 0.0 | 0.01 | 0.11 | 0.01 | 1 | 1010.8 |
| 20260904112519 | 52 | 229 | 0.0 | 0.0 | 0.00 | 0.10 | 0.00 | 1 | 1010.7 |
| 20260904112018 | 52 | 229 | 0.0 | 0.0 | 0.00 | 0.10 | 0.00 | 1 | 1010.6 |
| 20260904111523 | 52 | 229 | 0.0 | 0.0 | 0.00 | 0.10 | 0.00 | 1 | 1010.6 |
| 20260904111022 | 52 | 229 | 0.0 | 0.0 | 0.00 | 0.10 | 0.00 | 1 | 1010.6 |
| 20260904110512 | 52 | 229 | 0.0 | 0.0 | 0.00 | 0.10 | 0.00 | 1 | 1010.6 |
| 20260904110011 | 52 | 230 | 0.0 | 0.0 | 0.00 | 0.10 | 0.00 | 1 | 1010.6 |
| 20260904105509 | 52 | 229 | 0.0 | 0.0 | 0.00 | 0.10 | 0.00 | 1 | 1010.4 |
| 20260904105008 | 52 | 229 | 0.0 | 0.0 | 0.00 | 0.10 | 0.00 | 1 | 1010.3 |
| 20260904104507 | 52 | 229 | 0.0 | 0.0 | 0.00 | 0.10 | 0.00 | 1 | 1010.4 |
| 20260904104006 | 52 | 229 | 0.0 | 0.0 | 0.00 | 0.10 | 0.00 | 1 | 1010.4 |
| 20260904103504 | 52 | 229 | 0.0 | 0.0 | 0.00 | 0.10 | 0.00 | 1 | 1010.3 |
| 20260904103004 | 52 | 229 | 0.0 | 0.0 | 0.00 | 0.10 | 0.00 | 1 | 1010.3 |
| 20260904102501 | 52 | 229 | 0.0 | 0.0 | 0.00 | 0.10 | 0.00 | 1 | 1010.2 |
| 20260904102100 | 52 | 229 | 0.0 | 0.0 | 0.00 | 0.10 | 0.00 | 1 | 1010.1 |
| 20260904101600 | 52 | 229 | 0.0 | 0.0 | 0.00 | 0.10 | 0.00 | 1 | 1010.2 |
| 20260904101056 | 52 | 229 | 0.0 | 0.0 | 0.00 | 0.10 | 0.00 | 1 | 1010.2 |
| 20260904100555 | 52 | 230 | 0.0 | 0.0 | 0.00 | 0.10 | 0.00 | 1 | 1010.1 |
| 20260904095555 | 52 | 230 | 0.0 | 0.0 | 0.00 | 0.10 | 0.00 | 1 | 1009.9 |
| 20260904095050 | 52 | 230 | 0.0 | 0.0 | 0.00 | 0.10 | 0.00 | 1 | 1010.0 |
| 20260904094549 | 52 | 230 | 0.0 | 0.0 | 0.00 | 0.10 | 0.00 | 1 | 1009.8 |
| 20260904094051 | 52 | 230 | 0.0 | 0.0 | 0.00 | 0.10 | 0.00 | 1 | 1009.9 |
| 20260904093548 | 52 | 230 | 0.0 | 0.0 | 0.00 | 0.10 | 0.00 | 1 | 1009.9 |
| 20260904093052 | 52 | 229 | 0.0 | 0.0 | 0.00 | 0.10 | 0.00 | 1 | 1009.9 |
| 20260904092543 | 52 | 229 | 0.0 | 0.0 | 0.00 | 0.10 | 0.00 | 1 | 1009.9 |
| 20260904092042 | 52 | 222 | 0.0 | 0.0 | 0.00 | 0.10 | 0.00 | 1 | 1009.7 |
| 20260904091542 | 52 | 238 | 0.0 | 0.0 | 0.00 | 0.10 | 0.00 | 1 | 1009.8 |
| 20260904091038 | 52 | 238 | 0.0 | 0.0 | 0.00 | 0.10 | 0.00 | 1 | 1009.8 |
| 20260904090537 | 52 | 238 | 0.0 | 0.0 | 0.00 | 0.10 | 0.00 | 1 | 1009.8 |
| 20260904090047 | 52 | 238 | 0.0 | 0.0 | 0.00 | 0.10 | 0.00 | 1 | 1009.8 |
| 20260904085534 | 53 | 238 | 0.0 | 0.0 | 0.00 | 0.10 | 0.00 | 1 | 1009.8 |
| 20260904085033 | 53 | 238 | 0.0 | 0.0 | 0.00 | 0.10 | 0.00 | 1 | 1009.9 |
| 20260904084532 | 53 | 238 | 0.0 | 0.0 | 0.00 | 0.10 | 0.00 | 1 | 1009.8 |
| 20260904084031 | 53 | 238 | 0.0 | 0.0 | 0.00 | 0.10 | 0.00 | 1 | 1009.8 |
| 20260904083528 | 53 | 238 | 0.0 | 0.0 | 0.00 | 0.10 | 0.00 | 1 | 1009.8 |
| 20260904083027 | 53 | 238 | 0.0 | 0.0 | 0.00 | 0.10 | 0.00 | 1 | 1009.7 |
| 20260904082526 | 53 | 238 | 0.0 | 0.0 | 0.00 | 0.10 | 0.00 | 1 | 1009.8 |
| 20260904082027 | 53 | 238 | 0.0 | 0.0 | 0.00 | 0.10 | 0.00 | 1 | 1009.8 |
| 20260904081523 | 53 | 238 | 0.0 | 0.0 | 0.00 | 0.10 | 0.00 | 1 | 1009.6 |
| 20260904081022 | 53 | 238 | 0.0 | 0.0 | 0.00 | 0.10 | 0.00 | 1 | 1009.7 |
| 20260904080520 | 53 | 238 | 0.0 | 0.0 | 0.00 | 0.10 | 0.00 | 1 | 1009.6 |
| 20260904080025 | 53 | 238 | 0.0 | 0.0 | 0.00 | 0.10 | 0.00 | 1 | 1009.6 |
| 20260904075516 | 53 | 238 | 0.0 | 0.0 | 0.00 | 0.10 | 0.00 | 1 | 1009.7 |
| 20260904075014 | 53 | 238 | 0.0 | 0.0 | 0.00 | 0.10 | 0.00 | 1 | 1009.6 |
| 20260904074525 | 53 | 238 | 0.0 | 0.0 | 0.00 | 0.10 | 0.00 | 1 | 1009.8 |
| 20260904074012 | 53 | 238 | 0.0 | 0.0 | 0.00 | 0.10 | 0.00 | 1 | 1009.7 |
| 20260904073515 | 54 | 238 | 0.0 | 0.0 | 0.00 | 0.10 | 0.00 | 1 | 1009.7 |
| 20260904073012 | 54 | 238 | 0.0 | 0.0 | 0.00 | 0.10 | 0.00 | 1 | 1009.6 |
| 20260904072508 | 54 | 238 | 0.0 | 0.0 | 0.00 | 0.10 | 0.00 | 1 | 1009.7 |
| 20260904072007 | 54 | 238 | 0.0 | 0.0 | 0.00 | 0.10 | 0.00 | 1 | 1009.7 |
| 20260904071505 | 54 | 238 | 0.0 | 0.0 | 0.00 | 0.10 | 0.00 | 1 | 1009.6 |
| 20260904071004 | 54 | 238 | 0.0 | 0.0 | 0.00 | 0.10 | 0.00 | 1 | 1009.7 |
| 20260904070502 | 54 | 238 | 0.0 | 0.0 | 0.00 | 0.10 | 0.00 | 1 | 1009.7 |
| 20260904070001 | 54 | 238 | 0.0 | 0.0 | 0.00 | 0.10 | 0.10 | 1 | 1009.5 |
| 20260904065501 | 54 | 236 | 0.0 | 0.0 | 0.00 | 0.10 | 0.10 | 1 | 1009.5 |
| 20260904065001 | 54 | 266 | 0.0 | 0.0 | 0.00 | 0.10 | 0.10 | 1 | 1009.4 |
| 20260904064620 | 54 | 266 | 0.0 | 0.0 | 0.00 | 0.10 | 0.10 | 1 | 1009.5 |
| 20260904064102 | 54 | 266 | 0.0 | 0.0 | 0.00 | 0.10 | 0.10 | 1 | 1009.4 |
| 20260904063557 | 54 | 266 | 0.0 | 0.0 | 0.00 | 0.10 | 0.10 | 1 | 1009.3 |
| 20260904063057 | 54 | 266 | 0.0 | 0.0 | 0.00 | 0.10 | 0.10 | 1 | 1009.3 |
| 20260904062558 | 54 | 267 | 0.0 | 0.0 | 0.00 | 0.10 | 0.10 | 1 | 1009.3 |
| 20260904062053 | 54 | 267 | 0.0 | 0.0 | 0.00 | 0.10 | 0.10 | 1 | 1009.3 |
| 20260904061553 | 54 | 267 | 0.0 | 0.0 | 0.00 | 0.10 | 0.10 | 1 | 1009.2 |
| 20260904061053 | 54 | 267 | 0.0 | 0.0 | 0.00 | 0.10 | 0.10 | 1 | 1009.4 |
| 20260904060551 | 54 | 250 | 0.0 | 0.0 | 0.00 | 0.10 | 0.10 | 1 | 1009.3 |
| 20260904060047 | 55 | 250 | 0.0 | 0.0 | 0.00 | 0.10 | 0.10 | 1 | 1009.3 |
| 20260904055546 | 55 | 250 | 0.0 | 0.0 | 0.00 | 0.10 | 0.10 | 1 | 1009.2 |
| 20260904055044 | 55 | 250 | 0.0 | 0.0 | 0.00 | 0.10 | 0.10 | 1 | 1009.4 |
| 20260904054544 | 55 | 250 | 0.0 | 0.0 | 0.00 | 0.10 | 0.10 | 1 | 1009.3 |
| 20260904054042 | 55 | 250 | 0.0 | 0.0 | 0.00 | 0.10 | 0.10 | 1 | 1009.3 |
| 20260904053540 | 55 | 250 | 0.0 | 0.0 | 0.00 | 0.10 | 0.10 | 1 | 1009.4 |
| 20260904053041 | 55 | 250 | 0.0 | 0.0 | 0.00 | 0.10 | 0.10 | 1 | 1009.2 |
| 20260904052539 | 55 | 250 | 0.0 | 0.0 | 0.00 | 0.10 | 0.10 | 3 | 1009.3 |
| 20260904052036 | 55 | 282 | 0.0 | 0.0 | 0.00 | 0.10 | 0.10 | 5 | 1009.4 |
| 20260904051536 | 55 | 282 | 0.0 | 0.0 | 0.00 | 0.10 | 0.10 | 6 | 1009.3 |
| 20260904051033 | 55 | 282 | 0.0 | 0.0 | 0.00 | 0.10 | 0.10 | 7 | 1009.4 |
| 20260904050531 | 55 | 214 | 0.0 | 0.0 | 0.00 | 0.10 | 0.10 | 7 | 1009.4 |
| 20260904050032 | 55 | 214 | 0.0 | 0.0 | 0.00 | 0.10 | 0.10 | 7 | 1009.4 |
| 20260904045528 | 55 | 214 | 0.0 | 0.0 | 0.00 | 0.10 | 0.10 | 6 | 1009.4 |
| 20260904045027 | 55 | 214 | 0.0 | 0.0 | 0.00 | 0.10 | 0.10 | 5 | 1009.5 |
| 20260904044538 | 55 | 214 | 0.0 | 0.0 | 0.00 | 0.10 | 0.10 | 5 | 1009.6 |
| 20260904044027 | 55 | 214 | 0.0 | 0.0 | 0.00 | 0.10 | 0.10 | 5 | 1009.5 |
| 20260904043525 | 55 | 214 | 0.0 | 0.0 | 0.00 | 0.10 | 0.10 | 5 | 1009.5 |
| 20260904043021 | 55 | 209 | 0.0 | 0.0 | 0.00 | 0.10 | 0.10 | 5 | 1009.5 |
| 20260904042520 | 55 | 213 | 0.0 | 0.0 | 0.00 | 0.10 | 0.10 | 6 | 1009.5 |
| 20260904042024 | 55 | 212 | 0.0 | 0.0 | 0.00 | 0.10 | 0.10 | 8 | 1009.4 |
| 20260904041531 | 55 | 211 | 0.0 | 0.0 | 0.00 | 0.10 | 0.10 | 9 | 1009.5 |
| 20260904041015 | 56 | 211 | 0.0 | 0.0 | 0.00 | 0.10 | 0.10 | 9 | 1009.5 |
| 20260904040513 | 56 | 211 | 0.0 | 0.0 | 0.00 | 0.10 | 0.10 | 10 | 1009.6 |
| 20260904040015 | 56 | 211 | 0.0 | 0.0 | 0.00 | 0.11 | 0.10 | 10 | 1009.5 |
| 20260904035511 | 56 | 214 | 0.0 | 0.0 | 0.00 | 0.11 | 0.10 | 9 | 1009.5 |
| 20260904035009 | 56 | 173 | 0.0 | 0.0 | 0.00 | 0.11 | 0.10 | 9 | 1009.6 |
| 20260904034508 | 56 | 189 | 0.0 | 0.0 | 0.00 | 0.11 | 0.10 | 9 | 1009.6 |
| 20260904034007 | 56 | 184 | 0.0 | 0.0 | 0.00 | 0.11 | 0.10 | 10 | 1009.4 |
| 20260904033507 | 56 | 184 | 0.0 | 0.0 | 0.00 | 0.11 | 0.10 | 10 | 1009.3 |
| 20260904033003 | 57 | 182 | 0.0 | 0.0 | 0.00 | 0.11 | 0.10 | 10 | 1009.3 |
| 20260904032503 | 57 | 182 | 0.0 | 0.0 | 0.00 | 0.11 | 0.10 | 10 | 1009.2 |
| 20260904032004 | 57 | 219 | 0.0 | 0.0 | 0.00 | 0.11 | 0.10 | 9 | 1009.3 |
| 20260904031600 | 57 | 219 | 0.0 | 0.0 | 0.00 | 0.11 | 0.10 | 9 | 1009.2 |
| 20260904031059 | 57 | 242 | 0.0 | 0.0 | 0.00 | 0.11 | 0.10 | 9 | 1009.2 |
| 20260904030558 | 58 | 242 | 0.0 | 0.0 | 0.00 | 0.11 | 0.10 | 9 | 1009.2 |
| 20260904030056 | 58 | 252 | 0.0 | 0.0 | 0.00 | 0.11 | 0.10 | 10 | 1009.1 |
| 20260904025555 | 58 | 252 | 0.0 | 0.0 | 0.00 | 0.17 | 0.10 | 13 | 1009.1 |
| 20260904025054 | 58 | 252 | 0.0 | 0.0 | 0.00 | 0.17 | 0.10 | 12 | 1009.0 |
| 20260904024552 | 58 | 263 | 0.0 | 0.0 | 0.00 | 0.17 | 0.10 | 12 | 1009.2 |
| 20260904024052 | 59 | 263 | 0.0 | 0.0 | 0.00 | 0.17 | 0.10 | 13 | 1009.1 |
| 20260904023549 | 59 | 263 | 0.0 | 0.0 | 0.00 | 0.17 | 0.10 | 15 | 1009.1 |
| 20260904023048 | 59 | 263 | 0.0 | 0.0 | 0.00 | 0.17 | 0.10 | 15 | 1009.0 |
| 20260904022547 | 59 | 263 | 0.0 | 0.0 | 0.00 | 0.17 | 0.10 | 17 | 1009.0 |
| 20260904022045 | 59 | 263 | 0.0 | 0.0 | 0.00 | 0.17 | 0.10 | 21 | 1008.9 |
| 20260904021544 | 59 | 263 | 0.0 | 0.0 | 0.00 | 0.17 | 0.10 | 27 | 1008.9 |
| 20260904021042 | 59 | 257 | 0.0 | 0.0 | 0.00 | 0.17 | 0.10 | 23 | 1008.9 |
| 20260904020540 | 60 | 257 | 0.0 | 0.0 | 0.00 | 0.17 | 0.10 | 22 | 1009.0 |
| 20260904020046 | 60 | 261 | 0.0 | 0.0 | 0.00 | 0.17 | 0.10 | 25 | 1009.0 |
| 20260904015537 | 60 | 272 | 0.0 | 0.0 | 0.00 | 0.18 | 0.10 | 29 | 1008.9 |
| 20260904015036 | 60 | 257 | 0.0 | 0.0 | 0.00 | 0.18 | 0.10 | 25 | 1009.0 |
| 20260904014538 | 60 | 281 | 0.0 | 0.0 | 0.00 | 0.18 | 0.10 | 21 | 1008.7 |
| 20260904014034 | 61 | 283 | 0.0 | 0.0 | 0.01 | 0.18 | 0.10 | 10 | 1008.8 |
| 20260904013532 | 61 | 219 | 0.0 | 0.0 | 0.02 | 0.18 | 0.10 | 2 | 1008.7 |
| 20260904013030 | 60 | 219 | 0.0 | 0.0 | 0.03 | 0.18 | 0.10 | 1 | 1008.7 |
| 20260904012531 | 60 | 219 | 0.0 | 0.0 | 0.04 | 0.18 | 0.10 | 1 | 1008.6 |
| 20260904012027 | 60 | 219 | 0.0 | 0.0 | 0.05 | 0.18 | 0.10 | 1 | 1008.4 |
| 20260904011528 | 60 | 219 | 0.0 | 0.0 | 0.06 | 0.18 | 0.10 | 1 | 1008.5 |
| 20260904011024 | 59 | 219 | 0.0 | 0.0 | 0.07 | 0.18 | 0.10 | 1 | 1008.6 |
| 20260904010522 | 59 | 219 | 0.0 | 0.0 | 0.08 | 0.18 | 0.10 | 1 | 1008.5 |
| 20260904010021 | 59 | 219 | 0.0 | 0.0 | 0.09 | 0.18 | 0.10 | 1 | 1008.6 |
| 20260904005520 | 59 | 219 | 0.0 | 0.0 | 0.09 | 0.19 | 0.10 | 1 | 1008.5 |
| 20260904005018 | 59 | 219 | 0.0 | 0.0 | 0.10 | 0.19 | 0.10 | 5 | 1008.5 |
| 20260904004517 | 59 | 219 | 0.0 | 0.0 | 0.09 | 0.18 | 0.09 | 6 | 1008.6 |
| 20260904004017 | 59 | 219 | 0.0 | 0.0 | 0.09 | 0.18 | 0.09 | 14 | 1008.5 |
| 20260904003513 | 58 | 219 | 0.0 | 0.0 | 0.07 | 0.16 | 0.07 | 24 | 1008.6 |
| 20260904003013 | 59 | 219 | 0.0 | 0.0 | 0.06 | 0.15 | 0.06 | 29 | 1008.5 |
| 20260904002511 | 59 | 228 | 0.0 | 0.0 | 0.05 | 0.14 | 0.05 | 35 | 1008.7 |
| 20260904002010 | 59 | 214 | 0.0 | 0.0 | 0.05 | 0.14 | 0.05 | 39 | 1008.7 |
| 20260904001508 | 59 | 214 | 0.0 | 0.0 | 0.04 | 0.13 | 0.04 | 42 | 1008.7 |
| 20260904001007 | 59 | 227 | 0.0 | 0.0 | 0.03 | 0.12 | 0.03 | 50 | 1008.7 |
| 20260904000505 | 59 | 209 | 0.0 | 0.0 | 0.02 | 0.11 | 0.02 | 54 | 1008.8 |
| 20260904000005 | 60 | 244 | 0.0 | 0.0 | 0.01 | 0.11 | 0.01 | 58 | 1008.9 |
| 20260903235502 | 60 | 231 | 0.0 | 0.0 | 0.01 | 0.11 | 0.01 | 62 | 1008.9 |
| 20260903235000 | 60 | 221 | 0.0 | 0.0 | 0.00 | 0.10 | 0.00 | 65 | 1008.7 |
| 20260903234600 | 60 | 228 | 0.0 | 0.0 | 0.00 | 0.10 | 0.00 | 66 | 1008.8 |
| 20260903234100 | 60 | 262 | 0.0 | 0.0 | 0.00 | 0.10 | 0.00 | 66 | 1008.7 |
| 20260903233600 | 60 | 261 | 0.0 | 0.0 | 0.00 | 0.10 | 0.00 | 66 | 1008.7 |
| 20260903233100 | 60 | 214 | 0.0 | 0.0 | 0.00 | 0.10 | 0.00 | 66 | 1008.7 |
| 20260903232559 | 60 | 297 | 0.0 | 0.0 | 0.00 | 0.10 | 0.00 | 66 | 1008.6 |
| 20260903232058 | 61 | 290 | 0.0 | 0.0 | 0.00 | 0.10 | 0.00 | 66 | 1008.6 |
| 20260903231610 | 61 | 309 | 0.0 | 0.0 | 0.00 | 0.10 | 0.00 | 66 | 1008.7 |
| 20260903231055 | 61 | 279 | 0.0 | 0.0 | 0.00 | 0.10 | 0.00 | 65 | 1008.6 |
| 20260903230557 | 61 | 346 | 0.0 | 0.0 | 0.00 | 0.10 | 0.00 | 65 | 1008.5 |
| 20260903230052 | 62 | 308 | 0.0 | 0.0 | 0.00 | 0.10 | 0.00 | 65 | 1008.6 |
| 20260903225551 | 62 | 273 | 0.0 | 0.0 | 0.00 | 0.11 | 0.00 | 64 | 1008.5 |
| 20260903225050 | 63 | 279 | 0.0 | 0.0 | 0.00 | 0.11 | 0.00 | 64 | 1008.5 |
| 20260903224548 | 63 | 286 | 0.0 | 0.0 | 0.00 | 0.11 | 0.00 | 65 | 1008.6 |
| 20260903224047 | 63 | 229 | 0.0 | 0.0 | 0.00 | 0.11 | 0.00 | 64 | 1008.5 |
| 20260903223544 | 62 | 268 | 0.0 | 0.0 | 0.00 | 0.11 | 0.00 | 64 | 1008.6 |
| 20260903223046 | 62 | 271 | 0.0 | 0.0 | 0.00 | 0.11 | 0.00 | 64 | 1008.5 |
| 20260903222541 | 63 | 291 | 0.0 | 0.0 | 0.00 | 0.11 | 0.00 | 63 | 1008.7 |
| 20260903222040 | 64 | 334 | 0.0 | 0.0 | 0.00 | 0.11 | 0.00 | 63 | 1008.7 |
| 20260903221540 | 64 | 256 | 0.0 | 0.0 | 0.00 | 0.11 | 0.00 | 62 | 1008.7 |
| 20260903221037 | 65 | 300 | 0.0 | 0.0 | 0.00 | 0.11 | 0.00 | 60 | 1008.6 |
| 20260903220537 | 67 | 258 | 0.0 | 0.0 | 0.00 | 0.11 | 0.00 | 57 | 1008.5 |
| 20260903220056 | 68 | 300 | 0.0 | 0.0 | 0.00 | 0.11 | 0.00 | 54 | 1008.6 |
| 20260903215535 | 69 | 265 | 0.0 | 0.0 | 0.00 | 0.14 | 0.00 | 49 | 1008.4 |
| 20260903215032 | 70 | 315 | 0.0 | 0.0 | 0.00 | 0.14 | 0.00 | 46 | 1008.5 |
| 20260903214529 | 70 | 275 | 0.0 | 0.0 | 0.00 | 0.14 | 0.00 | 45 | 1008.4 |
| 20260903214028 | 70 | 273 | 0.0 | 0.0 | 0.00 | 0.14 | 0.00 | 48 | 1008.3 |
| 20260903213527 | 69 | 268 | 0.0 | 0.0 | 0.00 | 0.14 | 0.00 | 46 | 1008.4 |
| 20260903213028 | 69 | 321 | 0.0 | 0.0 | 0.00 | 0.14 | 0.00 | 46 | 1008.3 |
| 20260903212524 | 69 | 319 | 0.0 | 0.0 | 0.00 | 0.14 | 0.00 | 47 | 1008.4 |
| 20260903212026 | 69 | 355 | 0.0 | 0.0 | 0.00 | 0.14 | 0.00 | 48 | 1008.4 |
| 20260903211522 | 69 | 290 | 0.0 | 0.0 | 0.00 | 0.14 | 0.00 | 48 | 1008.4 |
| 20260903211020 | 69 | 324 | 0.0 | 0.0 | 0.00 | 0.14 | 0.00 | 48 | 1008.4 |
| 20260903210521 | 69 | 13 | 0.0 | 0.0 | 0.00 | 0.14 | 0.00 | 48 | 1008.5 |
| 20260903210017 | 68 | 11 | 0.0 | 0.0 | 0.00 | 0.17 | 0.00 | 51 | 1008.7 |
| 20260903205517 | 68 | 61 | 0.0 | 0.0 | 0.00 | 0.17 | 0.00 | 53 | 1008.8 |
| 20260903205014 | 68 | 355 | 0.0 | 0.0 | 0.00 | 0.17 | 0.00 | 53 | 1008.8 |
| 20260903204512 | 67 | 342 | 0.0 | 0.0 | 0.00 | 0.17 | 0.00 | 57 | 1008.7 |
| 20260903204011 | 66 | 310 | 0.0 | 0.0 | 0.00 | 0.17 | 0.00 | 55 | 1008.8 |
| 20260903203512 | 66 | 347 | 0.0 | 0.0 | 0.00 | 0.17 | 0.00 | 55 | 1008.8 |
| 20260903203015 | 66 | 355 | 0.0 | 0.0 | 0.00 | 0.17 | 0.00 | 58 | 1008.8 |
| 20260903202507 | 66 | 355 | 0.0 | 0.0 | 0.00 | 0.17 | 0.00 | 56 | 1008.9 |
| 20260903202006 | 65 | 355 | 0.0 | 0.0 | 0.00 | 0.17 | 0.00 | 59 | 1008.9 |
| 20260903201503 | 65 | 355 | 0.0 | 0.0 | 0.00 | 0.17 | 0.00 | 60 | 1009.0 |
| 20260903201002 | 65 | 355 | 0.0 | 0.0 | 0.00 | 0.17 | 0.00 | 61 | 1009.0 |
| 20260903200501 | 64 | 294 | 0.0 | 0.0 | 0.00 | 0.17 | 0.00 | 61 | 1009.0 |
| 20260903200108 | 64 | 294 | 0.0 | 0.0 | 0.00 | 0.17 | 0.00 | 61 | 1009.2 |
| 20260903195558 | 64 | 292 | 0.0 | 0.0 | 0.00 | 0.21 | 0.00 | 62 | 1009.2 |
| 20260903195059 | 63 | 292 | 0.0 | 0.0 | 0.00 | 0.21 | 0.00 | 65 | 1009.4 |
| 20260903194556 | 63 | 292 | 0.0 | 0.0 | 0.00 | 0.21 | 0.00 | 67 | 1009.6 |
| 20260903194053 | 62 | 345 | 0.0 | 0.0 | 0.00 | 0.21 | 0.00 | 66 | 1009.5 |
| 20260903193552 | 62 | 319 | 0.0 | 0.0 | 0.00 | 0.21 | 0.00 | 64 | 1009.6 |
| 20260903193055 | 61 | 319 | 0.0 | 0.0 | 0.00 | 0.21 | 0.00 | 62 | 1009.7 |
| 20260903192550 | 61 | 314 | 0.0 | 0.0 | 0.00 | 0.21 | 0.00 | 61 | 1009.7 |
| 20260903192048 | 61 | 312 | 0.0 | 0.0 | 0.00 | 0.21 | 0.00 | 53 | 1009.8 |
| 20260903191558 | 61 | 316 | 0.0 | 0.0 | 0.00 | 0.21 | 0.00 | 57 | 1009.9 |
| 20260903191045 | 60 | 331 | 0.0 | 0.0 | 0.00 | 0.21 | 0.00 | 61 | 1009.9 |
| 20260903190544 | 60 | 331 | 0.0 | 0.0 | 0.00 | 0.21 | 0.00 | 61 | 1009.9 |
| 20260903190041 | 61 | 331 | 0.0 | 0.0 | 0.00 | 0.21 | 0.00 | 55 | 1010.0 |
| 20260903185539 | 60 | 331 | 0.0 | 0.0 | 0.00 | 0.21 | 0.00 | 56 | 1010.1 |
| 20260903185039 | 60 | 331 | 0.0 | 0.0 | 0.00 | 0.21 | 0.00 | 54 | 1010.1 |
| 20260903184540 | 60 | 331 | 0.0 | 0.0 | 0.00 | 0.21 | 0.00 | 44 | 1010.1 |
| 20260903184036 | 59 | 330 | 0.0 | 0.0 | 0.00 | 0.21 | 0.00 | 41 | 1010.1 |
| 20260903183538 | 59 | 330 | 0.0 | 0.0 | 0.00 | 0.21 | 0.00 | 22 | 1010.0 |
| 20260903183049 | 59 | 331 | 0.0 | 0.0 | 0.00 | 0.21 | 0.00 | 29 | 1010.1 |
| 20260903182531 | 58 | 247 | 0.0 | 0.0 | 0.00 | 0.21 | 0.00 | 13 | 1010.2 |
| 20260903182031 | 58 | 246 | 0.0 | 0.0 | 0.00 | 0.21 | 0.00 | 1 | 1010.0 |
| 20260903181529 | 57 | 224 | 0.0 | 0.0 | 0.00 | 0.21 | 0.00 | 1 | 1010.2 |
| 20260903181030 | 55 | 224 | 0.0 | 0.0 | 0.00 | 0.21 | 0.00 | 1 | 1010.1 |